Theta_e
327 326 325 328 329 329 327 328 327 327 325 324 324 322 319 319 318 316 313 312 312 312 311 309 308 308 307 307 307 307 307 306
326 324 324 324 324 324 325 326 326 325 325 324 321 319 320 317 313 312 312 311 311 309 308 308 307 307 307 306 306 306 305 304
328 329 327 329 328 328 326 326 324 323 322 321 320 318 314 312 312 312 311 311 309 307 307 307 307 306 306 305 303 302 302 302
328 329 330 330 327 327 326 323 322 321 317 313 312 312 312 312 311 311 310 308 307 306 306 305 303 303 302 302 302 302 301 301
329 327 325 326 324 321 320 319 317 315 312 314 314 314 315 312 310 308 308 307 305 305 303 299 299 300 301 301 300 299 298 298
322 321 321 319 318 316 314 313 313 312 312 313 313 312 311 309 308 307 307 306 305 304 303 301 301 301 301 300 299 297 297 297
318 317 315 315 314 313 313 313 312 312 313 313 312 308 306 305 304 303 301 300 300 300 301 302 301 300 301 299 297 297 297 295
316 315 314 314 314 313 312 312 312 311 310 306 303 302 301 301 299 298 297 297 297 297 297 299 300 299 299 298 297 297 294 293
316 316 315 314 313 312 311 311 310 306 304 302 300 299 297 298 297 296 296 296 296 296 297 298 299 299 298 297 297 296 294 293
317 316 314 313 312 312 310 307 305 303 302 304 300 298 297 297 296 296 295 295 295 296 298 298 298 299 297 297 296 295 294 293
317 315 313 312 312 309 309 304 304 308 306 300 298 297 297 297 296 295 294 294 294 295 296 297 298 298 297 296 295 295 293 292
316 314 313 312 310 307 305 305 307 305 300 298 297 297 297 297 296 295 294 294 294 294 294 296 296 296 295 295 294 294 293 291
316 313 311 310 308 305 305 306 306 301 299 297 297 297 297 296 296 295 294 294 294 294 294 294 294 294 294 294 295 293 291 291
314 311 310 309 306 304 304 305 303 301 298 297 297 297 297 296 296 294 294 293 293 294 294 294 294 294 293 294 292 291 290 290
313 311 309 306 304 303 304 308 301 299 298 297 297 297 296 296 295 294 294 293 293 293 294 294 294 292 292 291 291 290 290 289
312 310 308 305 302 302 308 303 301 299 297 297 297 296 296 295 295 294 293 293 293 293 293 293 293 292 291 291 290 290 289 289
311 310 309 306 303 306 303 302 299 298 297 297 296 296 295 295 294 294 293 292 292 292 292 293 293 292 291 291 288 288 288 287
311 310 309 306 305 303 302 301 299 298 296 296 295 294 294 294 293 293 293 292 292 292 292 292 291 290 289 288 288 287 286 285
312 311 308 305 303 302 301 300 298 297 296 295 293 293 293 293 293 293 293 292 292 292 291 291 290 289 288 288 287 286 285 283
Wind_Speed
10 11 11 10 12 13 15 16 16 16 17 16 11 3 6 2 1 3 4 7 9 10 13 14 14 9 10 12 15 15 17 18
9 12 12 12 10 10 11 12 8 6 8 9 9 7 4 3 4 5 7 10 12 12 11 12 12 12 17 19 18 19 21 18
10 10 10 10 11 11 11 11 11 13 11 9 8 7 5 4 6 9 12 12 13 12 13 10 14 16 17 17 19 17 16 15
12 13 13 13 13 14 15 16 16 13 12 9 7 4 3 3 5 7 10 12 12 14 15 20 21 20 18 16 12 11 13 14
17 16 15 16 17 17 16 16 14 14 12 9 8 4 3 4 4 5 6 14 16 19 22 25 23 20 15 12 11 12 10 14
18 18 18 17 17 18 17 16 15 13 10 6 3 1 1 2 4 7 10 12 15 17 18 19 19 17 14 16 11 9 11 18
18 17 16 15 15 17 15 14 12 10 6 3 1 2 4 4 8 11 13 16 17 18 20 19 18 15 13 10 13 13 16 13
20 18 17 16 14 14 14 12 11 8 4 2 4 7 8 8 10 12 17 18 18 19 20 19 17 15 13 16 14 16 11 10
19 18 16 16 16 14 13 12 9 6 5 6 7 8 10 8 12 16 15 17 18 20 19 17 14 13 13 15 12 14 12 11
19 17 17 17 17 15 13 11 9 6 7 11 9 9 12 15 18 17 17 17 18 19 18 14 13 12 14 14 16 17 14 14
19 17 16 17 17 16 12 10 6 8 11 7 5 9 13 16 18 18 18 18 19 18 17 16 15 17 18 17 20 17 16 16
20 18 17 18 17 15 12 7 5 8 1 4 5 10 14 17 17 16 17 19 18 18 17 16 17 19 23 21 21 20 15 16
22 20 20 19 19 16 11 1 6 4 6 6 8 12 16 12 13 16 17 18 18 18 17 16 17 19 22 23 18 13 14 18
23 22 22 21 20 17 10 4 7 10 8 8 8 10 11 12 14 17 17 18 18 17 17 17 17 19 20 16 12 12 15 17
24 23 23 21 20 18 9 16 8 10 9 9 9 11 12 14 15 17 18 19 19 17 16 17 18 16 13 12 12 13 14 11
26 25 23 21 20 19 13 10 12 12 12 10 12 13 14 15 16 18 19 20 18 17 17 16 14 11 13 14 11 10 11 15
26 24 22 21 20 15 11 13 13 14 13 12 14 16 15 16 18 17 18 19 18 16 16 16 13 11 20 15 11 10 15 16
26 25 22 20 19 13 13 13 16 16 14 16 19 17 17 17 17 17 18 18 17 14 14 12 12 9 12 10 15 16 17 16
24 22 19 17 15 11 13 15 16 15 16 20 20 16 16 17 16 17 18 17 14 13 13 11 8 9 13 16 16 19 16 13
Wind_Direction
198 205 203 186 189 198 218 218 218 213 209 228 251 172 139 163 286 278 262 272 285 291 296 301 310 320 321 317 316 309 311 304
189 204 214 218 211 210 209 226 210 195 205 175 143 147 188 239 250 264 292 305 304 305 311 316 318 316 308 310 309 307 305 297
167 168 176 170 169 163 164 167 158 145 147 149 153 157 178 239 273 289 291 293 296 307 307 316 312 313 311 303 305 303 299 301
161 152 147 148 153 153 152 146 145 151 158 150 167 185 232 260 281 295 297 300 309 314 313 312 311 313 310 299 295 299 298 302
144 147 144 145 143 142 143 144 149 156 155 157 166 161 186 274 300 302 310 304 306 310 310 312 312 311 302 295 290 296 304 304
149 144 143 146 149 150 153 154 164 175 178 166 142 128 16 347 339 324 321 319 315 313 309 306 303 300 290 295 281 290 302 304
151 150 152 153 153 160 157 161 161 162 172 178 210 354 38 356 337 332 322 317 311 308 305 302 295 287 277 278 285 296 300 293
163 164 165 163 161 157 153 150 147 142 139 88 30 6 3 4 347 333 328 320 317 314 309 301 289 279 266 274 289 301 278 274
173 173 173 169 162 157 147 142 138 119 76 46 13 0 356 2 344 340 333 324 319 316 311 299 280 267 254 287 297 291 276 277
179 178 173 168 161 155 148 137 124 99 26 347 336 358 2 354 347 344 332 325 322 319 316 302 281 260 271 288 300 290 276 278
187 179 169 163 158 157 153 138 120 354 336 345 331 349 350 345 339 335 330 326 326 322 314 301 281 280 280 288 292 288 270 275
190 183 173 167 164 163 158 160 325 332 156 242 320 335 335 328 327 330 328 326 323 318 311 298 283 276 283 282 284 291 267 274
192 185 177 174 173 172 173 239 336 196 235 268 310 322 314 315 320 325 323 321 318 314 310 303 293 291 285 286 288 275 266 280
191 187 183 182 183 186 185 306 267 255 236 270 286 297 304 309 315 320 319 319 316 313 309 302 296 289 297 294 279 269 277 288
191 191 189 189 193 190 193 299 251 226 247 259 274 290 297 304 307 314 314 316 315 311 305 301 297 296 292 286 277 279 286 287
197 195 193 194 194 198 275 236 230 238 254 263 280 289 294 297 302 308 312 316 310 303 303 299 296 295 290 285 281 281 290 301
201 199 199 199 199 221 227 225 232 250 258 269 284 293 290 294 299 300 309 312 309 305 300 288 290 292 299 289 275 295 302 307
203 203 204 204 208 211 221 222 241 256 260 276 291 293 290 294 295 298 306 311 310 308 301 290 295 273 297 288 299 305 308 308
208 207 205 204 204 225 223 234 249 254 268 284 294 292 291 295 295 297 304 306 301 301 297 292 280 265 294 300 308 311 312 310